Regional Weather Roundup
Issued by NWS

Home | Current Version | Previous Version | Text Only | Print | Product List | Glossary Off
Versions: 1 2 3 4 5 6 7 8 9 10 11 12 13 14 15 16 17 18 19 20 21 22 23 24 25 26 27 28 29 30 31 32 33 34 35 36 37 38 39 40 41 42 43 44 45 46 47 48 49 50

000
ASUS43 KBIS 032310
RWRND

NORTH DAKOTA REGIONAL WEATHER ROUNDUP
NATIONAL WEATHER SERVICE BISMARCK ND
500 PM CST SAT DEC 03 2016

NOTE: "FAIR" INDICATES FEW OR NO CLOUDS BELOW 12,000 FEET WITH NO
SIGNIFICANT WEATHER AND/OR OBSTRUCTIONS TO VISIBILITY.


NDZ001>003-009>011-017-040000-
NORTHWEST NORTH DAKOTA

CITY           SKY/WX    TMP DP  RH WIND       PRES   REMARKS
WILLISTON      LGT SNOW  33  30  88 SW8       29.75S FOG
MINOT          CLOUDY    28  23  81 S10       29.79S WCI  19
MINOT AFB      MIX PCPN  27  23  86 S10       29.79S FOG     WCI  17
$$

NDZ018>021-031>035-040>046-040000-
SOUTHWEST NORTH DAKOTA

CITY           SKY/WX    TMP DP  RH WIND       PRES   REMARKS
BISMARCK       CLOUDY    25  23  92 S3        29.87S
DICKINSON      CLOUDY    31  26  82 SW13      29.77S
GARRISON         N/A     26  23  88 S10       29.81S WCI  16
HETTINGER ARPT CLOUDY    32  26  78 SW6       29.83S
$$

NDZ004>008-012>016-024-026-027-054-040000-
NORTHEAST NORTH DAKOTA

CITY           SKY/WX    TMP DP  RH WIND       PRES   REMARKS
GRAND FORKS    CLOUDY    31  24  75 SE17      30.02F WCI  19
GRND FRKS AFB  CLOUDY    30  25  80 S17G23    30.01F WCI  19
DEVILS LAKE    CLOUDY    31  28  89 S17       29.92R WCI  19
$$

NDZ022-023-025-028>030-036>039-047>053-040000-
SOUTHEAST NORTH DAKOTA

CITY           SKY/WX    TMP DP  RH WIND       PRES   REMARKS
FARGO          FLURRIES  33  27  78 SE18G26   30.04F
JAMESTOWN      FLURRIES  32  30  92 S14G22    29.93S
$$





USA.gov is the U.S. government's official web portal to all federal, state and local government web resources and services.